[Date Prev][Date Next][Thread Prev][Thread Next] - [Date Index][Thread Index][Author Index]
ISS 2Line Keps 02/15
- Subject: [sarex] ISS 2Line Keps 02/15
- From: "Scott Avery" <wa6lie@xxxxxxx>
- Date: Fri, 15 Feb 2002 17:21:21 -0800
ISS
1 25544U 98067A 02046.91582854 .00069168 00000-0 78939-3 0 792
2 25544 51.6394 302.5146 0005416 80.3954 25.2308 15.61549760185116
_________________________________________________________________
Join the world’s largest e-mail service with MSN Hotmail.
http://www.hotmail.com
----
Via the sarex mailing list at AMSAT.ORG courtesy of AMSAT-NA.
To unsubscribe, send "unsubscribe sarex" to Majordomo@amsat.org
AMSAT Home